Regional Weather Roundup
Issued by NWS Bismarck, ND

Home | Current Version | Previous Version | Text Only | Print | Product List | Glossary On
Versions: 1 2 3 4 5 6 7 8 9 10 11 12 13 14 15 16 17 18 19 20 21 22 23 24 25 26 27 28 29 30 31 32 33 34 35 36 37 38 39 40 41 42 43 44 45 46 47 48 49 50
000
ASUS43 KBIS 270001
RWRBIS

NWR BROADCAST TEXT
NATIONAL WEATHER SERVICE BISMARCK ND
700 PM CDT TUE MAY 26 2015

NOTE: "FAIR" INDICATES FEW OR NO CLOUDS BELOW 12,000 FEET WITH NO
SIGNIFICANT WEATHER AND/OR OBSTRUCTIONS TO VISIBILITY.


CITY           SKY/WX    TMP DP  RH WIND       PRES   REMARKS
WILLISTON      SUNNY     80  40  23 VRB3      29.86S
MINOT          PTSUNNY   69  51  52 E8        29.86R
MINOT AFB      TSTM      71  52  50 NE15      29.87R
BISMARCK       PTSUNNY   75  50  41 SE9       29.87R
DICKINSON      PTSUNNY   75  42  30 SW10      29.88F
GARRISON         N/A     76  44  32 E8        29.86F
HETTINGER ARPT SUNNY     72  48  42 SE6       29.92F
JAMESTOWN      PTSUNNY   73  48  41 SW6       29.78F
STANLEY        FAIR      77  39  25 VRB7      29.88S
$$

CITY           SKY/WX    TMP DP  RH WIND       PRES   REMARKS
GRAND FORKS    PTSUNNY   81  49  32 NW5       29.71F
GRAND FORKS AF PTSUNNY   77  55  46 W6        29.73F
DEVILS LAKE    MOSUNNY   79  43  27 NW9       29.77S
FARGO          CLOUDY    77  56  48 SW12      29.75F
GRAFTON        FAIR      81  46  30 CALM      29.73S
LANGDON        FAIR      81  41  24 E9        29.77F
$$

CITY           SKY/WX    TMP DP  RH WIND       PRES   REMARKS
ABERDEEN       CLOUDY    67  54  63 W10       29.82F
MOBRIDGE       SUNNY     79  47  32 NW12      29.84S
RAPID CITY     MOSUNNY   69  47  45 S9        29.95S
GLASGOW        MOSUNNY   76  38  25 SE7       29.85F
SIDNEY         SUNNY     79  45  29 CALM      29.86S
WOLF POINT     PTSUNNY   79  48  33 CALM      29.85S
GLENDIVE       PTSUNNY   72  50  46 SE9       29.88F
MILES CITY     PTSUNNY   75  48  38 S10       29.86S
BAKER          MOSUNNY   74  44  34 S15       29.91S
$$

CITY           SKY/WX    TMP DP  RH WIND       PRES   REMARKS
BILLINGS       TSTM      56  51  84 E9        29.95R
GREAT FALLS    MOSUNNY   66  48  52 N10       29.95F
$$




USA.gov is the U.S. government's official web portal to all federal, state and local government web resources and services.